Home   Weather   Madrid   Past weeks
Flag for Spain

Past Weather in Madrid, Spain — Yesterday and Last 2 Weeks

Now
55 °F

Passing clouds.


Feels Like: 55 °F
Forecast: 72 / 45 °F
Wind: 3 mph from Southwest

Location: Madrid / Cuatro Vientos

Current Time: May 19, 2019 at 9:29:46 am

Latest Report: May 19, 2019 at 9:00 am


Visibility: N/A

Pressure: 29.89 "Hg (27.63 "Hg at 658m altitude)

Humidity: 51%

Dew Point: 37 °F

Location of MadridLocation

Past Weather in Madrid — Graph

°F

Madrid Temperature Yesterday

Maximum temperature yesterday: 66 °F (at 5:00 pm)
Minimum temperature yesterday: 46 °F (at 7:30 am)
Average temperature yesterday: 58 °F

High & Low Weather Summary for the Past Weeks

 TemperatureHumidityPressure
High91 °F (May 15, 3:30 pm)88% (May 8, 7:00 am)30.33 "Hg (May 8, 7:00 am)
Low46 °F (May 4, 8:00 am)9% (May 15, 2:30 pm)29.62 "Hg (May 16, 8:00 pm)
Average68 °F39%29.99 "Hg
* Reported May 4 8:00 am — May 19 8:00 am, Madrid. Weather by CustomWeather, © 2019

Note: Actual official high and low records may vary slightly from our data, if they occured in-between our weather recording intervals... More about our weather records

Advertising

Madrid Weather History for the Previous 24 Hours

Scroll right to see more
 ConditionsComfort  
Time TempWeatherWind HumidityBarometerVisibility
8:00 am
Sun, May 19
50 °FSunny.2 mph62%29.89 "Hg10 mi
7:30 am50 °FSunny.2 mph62%29.89 "Hg10 mi
7:00 am50 °FPassing clouds.6 mph62%29.89 "HgN/A
10:00 pm
Sat, May 18
59 °FPassing clouds.5 mph34%29.89 "HgN/A
9:30 pm59 °FPassing clouds.7 mph34%29.86 "HgN/A
9:00 pm61 °FPassing clouds.9 mph31%29.86 "HgN/A
8:30 pm61 °FPassing clouds.12 mph29%29.86 "HgN/A
8:00 pm61 °FPassing clouds.13 mph31%29.86 "HgN/A
7:30 pm61 °FPassing clouds.8 mph29%29.86 "HgN/A
7:00 pm61 °FPassing clouds.9 mph29%29.86 "HgN/A
6:30 pm64 °FPassing clouds.13 mph28%29.86 "HgN/A
6:00 pm63 °FPassing clouds.13 mph30%29.86 "HgN/A
5:30 pm63 °FPassing clouds.14 mph27%29.83 "HgN/A
5:00 pm66 °FPassing clouds.12 mph22%29.83 "HgN/A
4:30 pm64 °FPassing clouds.12 mph28%29.83 "HgN/A
4:00 pm63 °FPassing clouds.13 mph30%29.86 "HgN/A
3:30 pm64 °FSunny.5 mph26%29.86 "Hg10 mi
3:00 pm64 °FSunny.5 mph26%29.86 "Hg10 mi
2:30 pm64 °FScattered clouds.6 mph26%29.86 "HgN/A
2:00 pm63 °FScattered clouds.5 mph25%29.86 "HgN/A
1:30 pm61 °FScattered clouds.8 mph29%29.86 "HgN/A
1:00 pm57 °FScattered clouds.8 mph36%29.86 "HgN/A
12:30 pm59 °FScattered clouds.7 mph31%29.89 "HgN/A
12:00 pm59 °FScattered clouds.7 mph34%29.86 "HgN/A
11:30 am55 °FScattered clouds.7 mph38%29.86 "HgN/A
11:00 am55 °FPassing clouds.7 mph41%29.86 "HgN/A
10:30 am54 °FPassing clouds.9 mph44%29.86 "HgN/A
10:00 am52 °FPassing clouds.13 mph47%29.86 "HgN/A
9:30 am50 °FPassing clouds.16 mph50%29.86 "HgN/A
9:00 am50 °FPassing clouds.15 mph50%29.86 "HgN/A
Weather by CustomWeather, © 2019

See weather overview